weather.gov     
National Weather Service

Terminal Aerodrome Forecast
NWS Homepage
This page is being discontinued on March 12, 2014.
The same data is available at this site. Please update your bookmarks.
Thank you, and we apologize for the inconvenience.
Please send an email to SR-SRH.Webmaster@noaa.gov with any concerns.


Current Version
Previous Version:    01  02  03  04  05  06  07  08  09  10  11  12  13  14  15  16  17  18  19  20  21  22  23  24  25  26  27  28  29  30  
   31  32  33  34  35  
[Printable]
855
FTUS43 KFSD 210537
TAFFSD
TAF
KFSD 210537Z 2106/2206 17011KT 3/4SM BR OVC002
     FM210800 17009KT 1/2SM FZFG VV001
     FM211600 17008KT 2SM BR OVC003
     FM212000 16013G20KT 5SM BR OVC008
     FM220200 17014G22KT 2SM BR OVC006=


855
FTUS43 KFSD 210537
TAFFSD
TAF
KFSD 210537Z 2106/2206 17011KT 3/4SM BR OVC002
     FM210800 17009KT 1/2SM FZFG VV001
     FM211600 17008KT 2SM BR OVC003
     FM212000 16013G20KT 5SM BR OVC008
     FM220200 17014G22KT 2SM BR OVC006=




U.S. Dept. of Commerce
NOAA National Weather Service
1325 East West Highway
Silver Spring, MD 20910
E-mail: w-nws.webmaster@noaa.gov
Page last modified: May 16, 2007
NATIONAL WEATHER SERVICE: for Safety, for Work, for Fun - FOR LIFE